Weather in Usman

Russia / Lipetsk Oblast     52°02′36″N   39°44′09″E
temp.,
°C
wind,
m/s
gust,
m/s
humid.,
%
clouds,
%
prec.,
mm/h
press.,
hPa
HPBL,
m
27 june, mon
mon2700:00+18ene36920 0.0 1020109
03:00+16ene36900 0.0 1020116
06:00+17ene24820 0.0 1021125
09:00+22ne34550 0.0 1021475
12:00+26ene34471 0.0 1021879
15:00+27ne34485 0.0 10201072
18:00+27e12563 0.0 1018716
21:00+20sw22802 0.3 101820
28 june, tue
tue2800:00+19w35855 0.0 101876
03:00+19nw35955 0.1 101792
06:00+21nne37890 0.0 1017211
09:00+25nne47640 0.0 1017557
12:00+28nne57500 0.0 10171525
15:00+29ne464889 0.0 10162190
18:00+24nne58775 1.5 1017680
21:00+18ne412750 1.5 1019326
29 june, wed
wed2900:00+14ene38820 0.0 1020164
03:00+12e36800 0.0 1021105
06:00+13ene26784 0.0 1022164
09:00+18ene355540 0.0 1022841
12:00+21ene3448100 0.0 10221622
15:00+22ene344697 0.0 10211853
18:00+21e235146 0.0 10201519
21:00+17ne3364100 0.0 102054
30 june, thu
thu3000:00+13ene33790 0.0 102046
03:00+12ne22800 0.0 102013
06:00+14nne25784 0.0 1020131
09:00+19n34550 0.0 1020721
12:00+22n45453 0.0 10191888
15:00+23n564499 0.0 10182134
18:00+21n47556 0.0 10181147
21:00+16nnw227582 0.0 101926
1 july, fri
fri100:00+14nnw347853 0.0 101971
03:00+13nw368048 0.0 1019115
06:00+14n38813 0.0 1020217
09:00+20nne46592 0.0 1020665
12:00+23nne46440 0.0 10201867
15:00+23ne46400 0.0 10202049
18:00+22ne35540 0.0 10201090
21:00+16nne22750 0.0 102116